KINEIS-4B

Last updated on Sat Sep 05 2026 00:02:54 GMT+0000 (Coordinated Universal Time)

1 63304U 25056E 26247.72983902 .00000815 00000+0 13656-3 0 9992 2 63304 97.9204 9.7385 0006450 53.4443 306.7357 14.72332783 78825
UTC large
Height (km)
Speed (km/s)
/
Latitude / Longitude
Inclination (degrees)
Orbital Period (minutes)
Azimuth
Elevation
Range (km)
Doppler Factor

Next 0 passes for location: London (51.5072 / 0.1276)

No passes found over London.
KINEIS-4B